カタログに戻る

STARLINK-34682

運用中通信SSO
NORAD 64854·PAYLOAD·🇺🇸 United States

打ち上げ Jul 19, 2025 から Vandenberg Space Force Base

Loading…

次のパス (今後24時間)

TLE

最新Source: CelesTrak SupGP

元期: Sep 15, 2026, 03:42 UTC

1 64854C 25152N   26258.15465278 -.00036094  00000+0 -11202-2 0  2582
2 64854  97.2851 108.8346 0002094  91.8499  46.8807 15.33463448    11

AllMySatでSTARLINK-34682をリアルタイム追跡

Download on the App Store